Home > Weather > Annapolis County > Past weeks

Flag for Canada Past Weather in Annapolis County, Nova Scotia, Canada — Yesterday and Last 2 Weeks

Now
58 °F

Cool.


Feels Like: 58 °F
Forecast: 51 / 59 °F
Wind: 3 mph from Southeast

Location: Kejimkujik 1

Current Time: May 25, 2016 at 4:21:19 AM

Latest Report: May 25, 2016 at 4:00 AM


Visibility: N/A

Pressure: 29.98 "Hg

Humidity: 96%

Dew Point: 57 °F

Location of Annapolis CountyLocation

Past Weather in Annapolis County — Graph

°F

Annapolis County Temperature Yesterday

Maximum temperature yesterday: 69 °F (at 7:00 PM)
Minimum temperature yesterday: 50 °F (at 6:00 AM)
Average temperature yesterday: 58 °F

High & Low Weather Summary for the Past Weeks

 TemperatureHumidityPressure
High78 °F (May 21, 1:00 PM)100% (May 22, 8:00 PM)30.13 "Hg (May 22, 8:00 PM)
Low34 °F (May 12, 6:00 AM)21% (May 21, 3:00 PM)29.46 "Hg (May 15, 4:00 PM)
Average53 °F70%29.92 "Hg
* Reported May 10 3:00 AM — May 25 3:00 AM, Annapolis County, Weather by CustomWeather, © 2016

Note: Actual official high and low records may vary slightly from our data, if they occured in-between our weather recording intervals... More about our weather records

Advertising

Annapolis County Weather History for the Previous 24 Hours

Scroll right to see more
 ConditionsComfort  
Time TempWeatherWind HumidityBarometerVisibility
3:00 AM
Wed, May 25
58 °FCool.3 mph96%29.99 "HgN/A
2:00 AM58 °FCool.3 mph95%30.00 "HgN/A
1:00 AM59 °FCool.2 mph96%30.00 "HgN/A
12:00 AM59 °FCool.2 mph95%30.01 "HgN/A
11:00 PM
Tue, May 24
60 °FCool.5 mph93%30.01 "HgN/A
10:00 PM62 °FCool.3 mph91%30.02 "HgN/A
9:00 PM65 °FMild.5 mph85%30.01 "HgN/A
8:00 PM68 °FMild.3 mph80%30.00 "HgN/A
7:00 PM69 °FMild.5 mph77%30.00 "HgN/A
6:00 PM68 °FMild.7 mph75%30.00 "HgN/A
5:00 PM68 °FMild.5 mph77%30.01 "HgN/A
4:00 PM64 °FMild.5 mph83%30.01 "HgN/A
3:00 PM63 °FMild.5 mph87%30.02 "HgN/A
2:00 PM61 °FCool.6 mph88%30.03 "HgN/A
1:00 PM59 °FCool.6 mph91%30.03 "HgN/A
12:00 PM57 °FCool.6 mph94%30.03 "HgN/A
11:00 AM56 °FCool.5 mph90%30.03 "HgN/A
10:00 AM54 °FCool.3 mph96%30.03 "HgN/A
9:00 AM51 °FCool.3 mph97%30.04 "HgN/A
8:00 AM50 °FCool.5 mph97%30.03 "HgN/A
7:00 AM50 °FCool.2 mph97%30.03 "HgN/A
6:00 AM50 °FCool.5 mph97%30.03 "HgN/A
5:00 AM50 °FCool.2 mph97%30.01 "HgN/A
4:00 AM50 °FCool.1 mph96%30.01 "HgN/A
Weather by CustomWeather, © 2016

See weather overviewHow to use our weather pages